Location: Lecco
(45.8566°N, 9.3977°E)
Time: 12:37:49
(UTC+02:00)

Vanguard 2 Rocket - Pass Details

Date: 15 August 2020
Orbit: 554 x 3326 km, 32.9° (Epoch: 24 September)

Event Time Altitude Azimuth Distance (km) Brightness Sun altitude
Rises 22:26:05 0° 261° (W) 4,160 10.8 -17.9°
Reaches altitude 10° 22:29:09 10° 248° (WSW) 3,545 10.2 -18.3°
Maximum altitude 22:36:24 25° 198° (SSW) 3,309 9.5 -19.2°
Enters shadow 22:42:02 19° 166° (SSE) 4,218 9.8 -19.8°
Drops below altitude 10° 22:46:57 10° 152° (SSE) 5,321 - -20.4°
Sets 22:53:03 0° 141° (SE) 6,760 - -21.1°
